Location: Unspecified
(0.0000°N, 0.0000°E)
Time: 04:14:53
(UTC+00:00)

Vanguard 2 Rocket - Visible Passes

Search period start: 01 May 2016 00:00
Search period end: 11 May 2016 00:00
Orbit: 554 x 3330 km, 32.9° (Epoch: 30 April)

Date Brightness Start Highest point End Pass type
(mag) Time Alt. Az. Time Alt. Az. Time Alt. Az.
01 May 10.5 18:00:37 10° SW 18:12:45 18° S 18:23:57 10° SSE visible
01 May 10.1 20:23:58 10° SSW 20:35:07 22° S 20:35:07 22° S visible
02 May 10.1 19:21:13 10° SSW 19:33:49 20° S 19:39:19 17° SSE visible
02 May 10.4 21:40:23 10° SW 21:45:09 19° SSW 21:45:09 19° SSW visible
03 May 10.4 18:18:01 10° SW 18:30:32 19° S 18:41:40 10° SE visible
03 May 9.9 20:38:25 10° SW 20:49:26 27° S 20:49:26 27° S visible
04 May 9.9 19:36:17 10° SSW 19:50:57 25° SSE 19:53:46 24° SSE visible
04 May 10.3 21:54:44 10° SW 21:59:37 21° SW 21:59:37 21° SW visible
05 May 10.2 18:33:59 10° SSW 18:48:04 22° SSE 18:58:11 13° SE visible
05 May 9.8 20:52:45 10° SW 21:04:03 34° S 21:04:03 34° S visible
06 May 9.6 19:50:49 10° SW 20:07:34 34° SSE 20:08:34 34° SSE visible
06 May 10.3 22:09:23 10° SW 22:14:26 22° SW 22:14:26 22° SW visible
07 May 9.9 18:48:59 10° SSW 19:05:06 28° SSE 19:13:11 20° ESE visible
07 May 9.6 21:07:12 10° SW 21:19:05 42° SSW 21:19:05 42° SSW visible
08 May 9.3 20:05:14 10° SW 20:23:41 47° SSE 20:23:50 47° SSE visible
08 May 10.3 22:24:31 10° WSW 22:29:44 23° WSW 22:29:44 23° WSW visible
09 May 9.6 19:03:33 10° SW 19:21:34 38° SSE 19:28:45 28° ESE visible
09 May 9.5 21:21:55 10° SW 21:34:39 49° SW 21:34:39 49° SW visible
10 May 10.2 18:02:10 10° SSW 18:18:56 31° SSE 18:33:28 10° ESE visible
10 May 8.9 20:19:44 10° SW 20:39:20 65° SSE 20:39:44 65° SE visible
10 May 10.3 22:40:18 10° WSW 22:45:39 22° WSW 22:45:39 22° WSW visible
